Regional Weather Roundup
Issued by NWS

Home | Current Version | Previous Version | Graphics & Text | Print | Product List | Glossary On
Versions: 1 2 3 4 5 6 7 8 9 10 11 12 13 14 15 16 17 18 19 20 21 22 23 24 25 26 27 28 29 30 31 32 33 34 35 36 37 38 39 40 41 42 43 44 45 46 47 48 49 50
000
ASUS45 KBOU 292107
RWRCO

WEATHER ROUNDUP FOR COLORADO
NATIONAL WEATHER SERVICE DENVER/BOULDER CO
300 PM MDT FRI AUG 29 2014

NOTE: "FAIR" INDICATES FEW OR NO CLOUDS BELOW 12000 FEET WITH NO
SIGNIFICANT WEATHER AND/OR OBSTRUCTIONS TO VISIBILITY.

COZ001>005-013-030-031-292200-
...NORTHWEST COLORADO...

CITY           SKY/WX    TMP DP  RH WIND       PRES   REMARKS
CRAIG          SUNNY     76  44  32 VRB3      30.17F
HAYDEN         SUNNY     73  43  33 W7G20     30.19F
MEEKER         MOSUNNY   76  43  30 VRB7      30.19F
MOUNT WERNER   NOT AVBL
STEAMBOAT SPGS MOSUNNY   69  47  45 S5        30.21F
WALDEN         MOSUNNY   63  37  39 NW8       30.27S
$$

COZ006>008-011-292200-
...WEST CENTRAL VALLEYS...

CITY           SKY/WX    TMP DP  RH WIND       PRES   REMARKS
GRAND JUNCTION MOSUNNY   82  43  25 W9        30.10F
MONTROSE       SUNNY     79  41  25 NW8       30.18F
EAGLE          PTSUNNY   72  43  35 W13       30.21F
RIFLE          MOSUNNY   79  44  28 W7        30.13F
DELTA          SUNNY     84  44  24 S9        30.13F
NUCLA          SUNNY     79  41  25 N8        30.21F
$$

COZ017>023-064>068-292200-
...SOUTHWEST COLORADO...

CITY           SKY/WX    TMP DP  RH WIND       PRES   REMARKS
DURANGO        SUNNY     78  30  17 SW6G17    30.18F
CORTEZ         SUNNY     81  39  22 N10       30.15F
PAGOSA SPRINGS MOSUNNY   76  25  15 W5G17     30.25F
TELLURIDE      MOSUNNY   66  36  32 W10       30.36F
WOLF CREEK PAS CLOUDY    54  32  43 SW8G16    30.54F
$$

COZ009-010-012-014-032>034-037-058>063-292200-
...CENTRAL COLORADO...

CITY           SKY/WX    TMP DP  RH WIND       PRES   REMARKS
ASPEN          MOSUNNY   72  37  28 N8        30.26F
BUENA VISTA    MOSUNNY   73  24  16 NW3       30.24F
COPPER MTN     TSTM      45  32  61 NW10G37   30.56S
BERTHOUD PASS  PTSUNNY   41  41 100 N12G24    30.57F THUNDER
COTTONWOOD PAS PTSUNNY   66  21  18 CALM      30.39F
GUNNISON       SUNNY     72  37  28 SW8       30.28F
KREMMLING      PTSUNNY   73  32  21 N9        30.24F
LEADVILLE      MOSUNNY   64  31  28 NW7       30.38F
MONARCH PASS   MOSUNNY   54  32  43 W15       30.64F
SALIDA         MOSUNNY   71  33  24 SW16G23   30.30S
SUNLIGHT       MOSUNNY   57  41  54 N5        30.50F
WILKERSON PASS NOT AVBL
$$

COZ069>075-292200-
...SAN LUIS VALLEY/SANGRE DE CRISTO MOUNTAINS...

CITY           SKY/WX    TMP DP  RH WIND       PRES   REMARKS
ALAMOSA        SUNNY     74  29  19 N7        30.25F
LA VETA PASS   NOT AVBL
SAGUACHE       NOT AVBL
$$

COZ035-036-038>040-292200-
...NORTHERN COLORADO FRONT RANGE...

CITY           SKY/WX    TMP DP  RH WIND       PRES   REMARKS
DENVER INTL AP PTSUNNY   75  46  35 NW13      30.09F THUNDER
DMNS CITY PARK   N/A     66  52  61 W10G18    30.13R
AURORA         TSTM      72  44  36 NW14G26   30.14R
FRONT RANGE AP NOT AVBL
ERIE MUNI ARPT PTSUNNY   72  44  37 W10       30.10R
BOULDER MUN AP PTSUNNY   63  52  67 SW10      30.11S THUNDER
CENTENNIAL     CLOUDY    75  44  33 N14       30.12F THUNDER
BROOMFIELD     PTSUNNY   66  41  39 SW12G17   30.14R
FORT COLLINS   CLOUDY    68  50  52 SW9       30.10R
LONGMONT       CLOUDY    73  49  42 SW7       30.11R
$$

COZ041-046-047-076>085-087-088-292200-
...PIKES PEAK/PALMER DIVIDE AND SOUTHERN FOOTHILLS...

CITY           SKY/WX    TMP DP  RH WIND       PRES   REMARKS
COLO. SPRINGS  MOSUNNY   79  36  21 NE5       30.13F
A. F. ACADEMY  MOSUNNY   74  38  27 N8        30.15F
ELLICOTT       MOSUNNY   80  36  20 CALM      30.12F
FALCON         MOSUNNY   77  37  24 N9G18     30.19F
FORT CARSON    MOSUNNY   79  38  22 E7        30.11F
LIMON          SUNNY     80  41  24 NE6       30.09F
MONUMENT HILL  MOSUNNY   72  41  33 NE10      30.19F
TRINIDAD       SUNNY     82  32  16 W6        30.12F
$$

COZ042>045-048>051-090-091-292200-
...NORTHEAST COLORADO...

CITY           SKY/WX    TMP DP  RH WIND       PRES   REMARKS
GREELEY ARPT   PTSUNNY   79  45  29 CALM      30.06S THUNDER
AKRON          MOSUNNY   81  43  26 N13G20    30.03F
BURLINGTON     SUNNY     83  46  27 N13G21    30.00F
WRAY             N/A     86  47  25 NW10      29.96F
STERLING       SUNNY     86  55  35 NE6       29.99S
HOLYOKE        MOSUNNY   82  46  28 N5        29.96F
FORT MORGAN    MOSUNNY   80  47  30 N10G16    30.04S
$$

COZ086-089-092>099-292200-
...SOUTHEAST COLORADO...

CITY           SKY/WX    TMP DP  RH WIND       PRES   REMARKS
PUEBLO         PTSUNNY   87  36  16 CALM      30.02F
LA JUNTA       MOSUNNY   89  40  17 NE13      29.99F
LAMAR          SUNNY     88  43  20 VRB6G20   29.95F
SPRINGFIELD      N/A     86  43  22 N18       30.01F
$$


USA.gov is the U.S. government's official web portal to all federal, state and local government web resources and services.